| time (UTC) | temp F | wind direction | speed knots | gust knots | rain 1hr in | rain 24hr in | rain mn in | humidity % | barometer mb |
| 20260504044511 | 41 | 306 | 3.5 | 4.3 | 0.00 | 1.35 | 0.00 | 87 | 1016.0 |
| 20260504043011 | 38 | 312 | 0.9 | 4.3 | 0.00 | 1.40 | 0.00 | 90 | 1015.9 |
| 20260504034510 | 37 | 214 | 0.9 | 3.5 | 0.00 | 1.43 | 0.00 | 89 | 1015.7 |
| 20260504031509 | 38 | 293 | 2.6 | 3.5 | 0.00 | 1.43 | 0.00 | 91 | 1015.5 |
| 20260504024509 | 37 | 0 | 2.6 | 5.2 | 0.00 | 1.43 | 0.00 | 91 | 1015.4 |
| 20260504021509 | 38 | 329 | 2.6 | 2.6 | 0.00 | 1.43 | 0.00 | 90 | 1015.5 |
| 20260504014509 | 38 | 216 | 1.7 | 2.6 | 0.00 | 1.43 | 0.00 | 89 | 1015.5 |
| 20260504011506 | 40 | 276 | 0.0 | 2.6 | 0.00 | 1.43 | 0.00 | 87 | 1015.5 |
| 20260504004507 | 40 | 258 | 2.6 | 3.5 | 0.00 | 1.43 | 0.00 | 89 | 1015.3 |
| 20260504001506 | 40 | 228 | 3.5 | 4.3 | 0.00 | 1.43 | 0.00 | 87 | 1015.4 |
| 20260503234506 | 41 | 210 | 1.7 | 4.3 | 0.00 | 1.43 | 0.00 | 83 | 1015.3 |
| 20260503231506 | 43 | 321 | 1.7 | 5.2 | 0.00 | 1.43 | 0.00 | 79 | 1015.5 |
| 20260503230006 | 43 | 320 | 2.6 | 7.8 | 0.00 | 1.43 | 0.00 | 79 | 1015.4 |
| 20260503221506 | 43 | 336 | 2.6 | 7.8 | 0.00 | 1.43 | 0.00 | 80 | 1015.4 |
| 20260503220005 | 46 | 271 | 5.2 | 9.6 | 0.00 | 1.43 | 0.00 | 76 | 1015.4 |
| 20260503211504 | 46 | 282 | 5.2 | 6.1 | 0.00 | 1.43 | 0.00 | 76 | 1015.5 |
| 20260503204503 | 46 | 278 | 1.7 | 4.3 | 0.00 | 1.43 | 0.42 | 75 | 1015.5 |
| 20260503201503 | 46 | 281 | 2.6 | 3.5 | 0.00 | 1.43 | 0.42 | 77 | 1015.7 |
| 20260503200004 | 46 | 245 | 1.7 | 4.3 | 0.00 | 1.43 | 0.42 | 78 | 1015.8 |
| 20260503193003 | 48 | 259 | 3.5 | 3.5 | 0.00 | 1.43 | 0.42 | 76 | 1015.8 |
| 20260503184500 | 46 | 248 | 2.6 | 6.1 | 0.00 | 1.43 | 0.42 | 82 | 1015.7 |
| 20260503181502 | 47 | 209 | 4.3 | 5.2 | 0.00 | 1.43 | 0.42 | 79 | 1015.5 |
| 20260503180001 | 52 | 243 | 2.6 | 4.3 | 0.00 | 1.43 | 0.42 | 63 | 1015.0 |
| 20260503171459 | 53 | 331 | 2.6 | 7.8 | 0.00 | 1.43 | 0.42 | 61 | 1014.6 |
| 20260503081452 | 46 | 344 | 7.0 | 11.3 | 0.11 | 0.20 | 0.20 | 89 | 1015.3 |